sat.trackr.live / text

‹ back to catalog

2023-085V

NORAD 57023 · 2023-085V

PAYLOAD ACTIVE UNKNOWN

§ Identity

Operator
Country
PRC
Launch date
2023-06-15
Launch site
TAISC
Launch vehicle
Mass (kg)
RCS (m²)

External: N2YO · Heavens-Above · Gunter

§ Orbital elements

Epoch: 2026-09-21T22:03:07.718976Z

Period
93.75 min
Inclination
97.5015°
Eccentricity
0.0006509
Mean motion
15.36025185 rev/d
Perigee alt
453.4 km
Apogee alt
462.3 km
Semi-major
6,836.0 km
B*
3.1125e-4
RAAN
18.1354°
Arg perigee
89.1491°
Mean anomaly
271.0499°
Rev number
18,153

§ Raw data

2023-085V1 57023U 23085V   26264.91883934  .00010846  00000+0  31125-3 0  99932 57023  97.5015  18.1354 0006509  89.1491 271.0499 15.36025185181536

JSON: /api/v1/satellites/57023 · /tle

For live sub-satellite position, see the globe view (requires WebGL).

§ Visibility from observer

Set your observer location to see the next 7 days of passes ≥ 10°. The values pass through the URL so the page stays shareable.

No JS? Fill the form by hand. The geolocation button needs JavaScript.